Location: ?astrovice
(49.6513°N, 14.9287°E)
Time: 08:02:03
(UTC+00:00)

BEESAT - Pass Details

Date: 26 October 2021
Orbit: 700 x 707 km, 98.6° (Epoch: 01 December)

Event Time Altitude Azimuth Distance (km) Brightness Sun altitude
Rises 04:26:43 0° 128° (SE) 3,081 ? -12.3°
Reaches altitude 10° 04:29:16 10° 115° (ESE) 2,166 ? -11.9°
Maximum altitude 04:33:07 25° 61° (ENE) 1,399 ? -11.3°
Drops below altitude 10° 04:36:58 10° 7° (N) 2,178 ? -10.7°
Sets 04:39:32 0° 355° (N) 3,100 ? -10.3°
